Location: Bilsen
(53.7722°N, 9.8765°E)
Time: 20:06:37
(UTC+00:00)

SL-16 R/B - Pass Details

Date: 18 February 2020
Orbit: 842 x 846 km, 71.0° (Epoch: 30 March)

Event Time Altitude Azimuth Distance (km) Brightness Sun altitude
Exits shadow 04:39:44 - 323° (NW) 2,609 4.4 -17.6°
Reaches altitude 10° 04:40:25 10° 329° (NNW) 2,478 4.4 -17.5°
Maximum altitude 04:43:15 14° 359° (N) 2,217 4.4 -17.1°
Drops below altitude 10° 04:46:06 10° 30° (NNE) 2,479 5.1 -16.6°
Sets 04:49:57 0° 55° (NE) 3,415 6.4 -16.1°
